| time (UTC) | temp F | wind direction | speed MPH | gust MPH | rain 1hr in | rain 24hr in | rain mn in | humidity % | barometer mb |
| 20260506204604 | 57 | 207 | 1.0 | 2.0 | 0.00 | 0.00 | 0.14 | 85 | 1011.5 |
| 20260506203604 | 57 | 329 | 1.0 | 3.0 | 0.00 | 0.00 | 0.14 | 87 | 1011.5 |
| 20260506201608 | 57 | 240 | 0.0 | 0.0 | 0.00 | 0.00 | 0.14 | 89 | 1011.2 |
| 20260506200604 | 57 | 214 | 0.0 | 0.0 | 0.00 | 0.00 | 0.14 | 89 | 1011.2 |
| 20260506195604 | 58 | 230 | 1.0 | 1.0 | 0.00 | 0.00 | 0.14 | 87 | 1011.2 |
| 20260506194604 | 58 | 197 | 1.0 | 1.0 | 0.00 | 0.00 | 0.14 | 86 | 1010.8 |
| 20260506193604 | 58 | 182 | 1.0 | 2.0 | 0.00 | 0.00 | 0.14 | 86 | 1010.8 |
| 20260506192604 | 58 | 176 | 1.0 | 1.0 | 0.00 | 0.00 | 0.14 | 85 | 1010.5 |
| 20260506191604 | 58 | 190 | 0.0 | 1.0 | 0.00 | 0.00 | 0.14 | 84 | 1010.5 |
| 20260506190604 | 58 | 203 | 1.0 | 2.0 | 0.00 | 0.00 | 0.14 | 84 | 1010.2 |
| 20260506185604 | 58 | 220 | 1.0 | 1.0 | 0.00 | 0.00 | 0.14 | 84 | 1010.2 |
| 20260506184604 | 58 | 207 | 1.0 | 1.0 | 0.00 | 0.00 | 0.14 | 83 | 1010.2 |
| 20260506183604 | 59 | 180 | 1.0 | 2.0 | 0.00 | 0.00 | 0.14 | 82 | 1009.8 |
| 20260506182604 | 59 | 193 | 0.0 | 0.0 | 0.00 | 0.00 | 0.14 | 82 | 1009.8 |
| 20260506181604 | 59 | 202 | 1.0 | 2.0 | 0.00 | 0.00 | 0.14 | 79 | 1009.8 |
| 20260506180604 | 59 | 249 | 0.0 | 1.0 | 0.00 | 0.00 | 0.14 | 79 | 1009.8 |
| 20260506174604 | 60 | 217 | 0.0 | 0.0 | 0.00 | 0.00 | 0.14 | 80 | 1009.8 |
| 20260506173606 | 60 | 221 | 0.0 | 1.0 | 0.00 | 0.00 | 0.14 | 77 | 1009.5 |
| 20260506172604 | 61 | 203 | 1.0 | 1.0 | 0.00 | 0.00 | 0.14 | 77 | 1009.5 |
| 20260506171604 | 61 | 202 | 0.0 | 1.0 | 0.00 | 0.00 | 0.14 | 77 | 1009.5 |
| 20260506170604 | 62 | 186 | 0.0 | 1.0 | 0.00 | 0.00 | 0.14 | 75 | 1009.8 |
| 20260506165604 | 62 | 115 | 0.0 | 1.0 | 0.00 | 0.00 | 0.14 | 75 | 1009.8 |
| 20260506164604 | 63 | 197 | 2.0 | 2.0 | 0.00 | 0.00 | 0.14 | 71 | 1009.8 |
| 20260506163604 | 63 | 178 | 1.0 | 1.0 | 0.00 | 0.00 | 0.14 | 66 | 1009.5 |
| 20260506162604 | 64 | 32 | 1.0 | 2.0 | 0.00 | 0.00 | 0.14 | 65 | 1009.5 |
| 20260506160604 | 65 | 194 | 0.0 | 1.0 | 0.00 | 0.00 | 0.14 | 64 | 1009.5 |
| 20260506155604 | 66 | 161 | 2.0 | 2.0 | 0.00 | 0.00 | 0.14 | 64 | 1009.5 |
| 20260506154604 | 66 | 158 | 2.0 | 3.0 | 0.00 | 0.00 | 0.14 | 63 | 1009.5 |
| 20260506153604 | 66 | 204 | 1.0 | 2.0 | 0.00 | 0.00 | 0.14 | 63 | 1009.5 |
| 20260506152604 | 66 | 66 | 3.0 | 4.0 | 0.00 | 0.00 | 0.14 | 63 | 1009.5 |
| 20260506151604 | 66 | 200 | 2.0 | 2.0 | 0.00 | 0.00 | 0.14 | 63 | 1009.5 |
| 20260506150604 | 65 | 353 | 5.0 | 7.0 | 0.00 | 0.00 | 0.14 | 63 | 1009.5 |
| 20260506145604 | 66 | 12 | 3.0 | 3.0 | 0.00 | 0.00 | 0.14 | 64 | 1009.8 |
| 20260506144604 | 67 | 25 | 3.0 | 4.0 | 0.00 | 0.00 | 0.14 | 63 | 1009.5 |
| 20260506143604 | 68 | 72 | 2.0 | 2.0 | 0.00 | 0.00 | 0.14 | 63 | 1009.8 |
| 20260506142604 | 68 | 207 | 3.0 | 3.0 | 0.00 | 0.00 | 0.14 | 64 | 1009.8 |
| 20260506141604 | 67 | 358 | 3.0 | 6.0 | 0.00 | 0.00 | 0.14 | 64 | 1009.8 |
| 20260506140604 | 68 | 170 | 1.0 | 3.0 | 0.00 | 0.00 | 0.14 | 64 | 1009.8 |
| 20260506135604 | 68 | 185 | 2.0 | 3.0 | 0.00 | 0.00 | 0.14 | 65 | 1009.8 |
| 20260506134604 | 68 | 152 | 3.0 | 3.0 | 0.00 | 0.00 | 0.14 | 64 | 1009.8 |
| 20260506133604 | 68 | 79 | 2.0 | 3.0 | 0.00 | 0.00 | 0.14 | 66 | 1009.8 |
| 20260506132604 | 67 | 222 | 2.0 | 3.0 | 0.00 | 0.00 | 0.14 | 69 | 1010.2 |
| 20260506131604 | 67 | 218 | 2.0 | 6.0 | 0.00 | 0.00 | 0.14 | 71 | 1010.2 |
| 20260506130604 | 68 | 290 | 3.0 | 3.0 | 0.00 | 0.00 | 0.14 | 67 | 1010.2 |
| 20260506125604 | 67 | 148 | 1.0 | 3.0 | 0.00 | 0.00 | 0.14 | 70 | 1010.2 |
| 20260506124604 | 68 | 56 | 2.0 | 2.0 | 0.00 | 0.00 | 0.14 | 68 | 1010.2 |
| 20260506123604 | 68 | 301 | 3.0 | 3.0 | 0.00 | 0.00 | 0.14 | 65 | 1010.2 |
| 20260506122604 | 68 | 186 | 2.0 | 2.0 | 0.00 | 0.00 | 0.14 | 67 | 1010.2 |
| 20260506121604 | 68 | 348 | 2.0 | 3.0 | 0.00 | 0.00 | 0.14 | 64 | 1010.2 |
| 20260506120604 | 67 | 227 | 3.0 | 5.0 | 0.00 | 0.00 | 0.14 | 69 | 1010.2 |
| 20260506115604 | 66 | 33 | 1.0 | 4.0 | 0.00 | 0.00 | 0.14 | 72 | 1010.2 |
| 20260506114604 | 67 | 71 | 1.0 | 1.0 | 0.00 | 0.00 | 0.14 | 72 | 1010.2 |
| 20260506113604 | 68 | 259 | 3.0 | 3.0 | 0.00 | 0.00 | 0.14 | 68 | 1010.2 |
| 20260506112604 | 67 | 9 | 3.0 | 3.0 | 0.00 | 0.00 | 0.14 | 67 | 1010.2 |
| 20260506111604 | 68 | 7 | 3.0 | 3.0 | 0.00 | 0.00 | 0.14 | 66 | 1010.2 |
| 20260506110604 | 68 | 107 | 3.0 | 5.0 | 0.00 | 0.00 | 0.14 | 65 | 1010.2 |
| 20260506105604 | 68 | 313 | 2.0 | 2.0 | 0.00 | 0.00 | 0.14 | 64 | 1010.2 |
| 20260506104604 | 69 | 34 | 2.0 | 2.0 | 0.00 | 0.00 | 0.14 | 65 | 1010.2 |
| 20260506103604 | 69 | 217 | 2.0 | 3.0 | 0.00 | 0.00 | 0.14 | 65 | 1010.2 |
| 20260506102604 | 69 | 245 | 1.0 | 2.0 | 0.00 | 0.00 | 0.14 | 68 | 1010.2 |
| 20260506101604 | 69 | 270 | 2.0 | 2.0 | 0.00 | 0.00 | 0.14 | 65 | 1009.8 |
| 20260506100604 | 69 | 357 | 2.0 | 2.0 | 0.00 | 0.00 | 0.14 | 63 | 1010.2 |
| 20260506095604 | 69 | 291 | 1.0 | 1.0 | 0.00 | 0.00 | 0.14 | 63 | 1009.8 |
| 20260506094604 | 69 | 198 | 2.0 | 3.0 | 0.00 | 0.00 | 0.14 | 63 | 1009.8 |
| 20260506093604 | 69 | 199 | 1.0 | 1.0 | 0.00 | 0.00 | 0.14 | 62 | 1009.8 |
| 20260506092604 | 69 | 321 | 3.0 | 3.0 | 0.00 | 0.00 | 0.14 | 63 | 1010.2 |
| 20260506091604 | 69 | 132 | 1.0 | 1.0 | 0.00 | 0.00 | 0.14 | 63 | 1010.2 |
| 20260506090607 | 69 | 154 | 1.0 | 3.0 | 0.00 | 0.00 | 0.14 | 62 | 1010.2 |
| 20260506085603 | 67 | 144 | 3.0 | 3.0 | 0.00 | 0.00 | 0.14 | 66 | 1010.2 |
| 20260506084604 | 67 | 78 | 4.0 | 4.0 | 0.00 | 0.00 | 0.14 | 63 | 1009.8 |
| 20260506083603 | 67 | 165 | 1.0 | 3.0 | 0.00 | 0.00 | 0.14 | 68 | 1009.8 |
| 20260506082603 | 67 | 193 | 0.0 | 1.0 | 0.00 | 0.00 | 0.14 | 68 | 1009.8 |
| 20260506081603 | 65 | 185 | 0.0 | 1.0 | 0.00 | 0.00 | 0.14 | 70 | 1009.8 |
| 20260506080603 | 64 | 90 | 2.0 | 2.0 | 0.00 | 0.00 | 0.14 | 68 | 1009.8 |
| 20260506072557 | 61 | 193 | 1.0 | 1.0 | 0.00 | 0.00 | 0.14 | 81 | 1009.8 |
| 20260506071557 | 62 | 188 | 1.0 | 1.0 | 0.00 | 0.00 | 0.14 | 79 | 1009.8 |
| 20260506070557 | 64 | 124 | 0.0 | 1.0 | 0.00 | 0.00 | 0.14 | 75 | 1009.8 |
| 20260506061600 | 62 | 205 | 0.0 | 1.0 | 0.00 | 0.00 | 0.14 | 78 | 1009.5 |
| 20260506060557 | 60 | 193 | 1.0 | 1.0 | 0.00 | 0.00 | 0.14 | 84 | 1009.5 |
| 20260506050557 | 53 | 213 | 0.0 | 1.0 | 0.00 | 0.00 | 0.14 | 96 | 1009.1 |
| 20260506044556 | 53 | 209 | 0.0 | 1.0 | 0.00 | 0.00 | 0.14 | 96 | 1008.8 |
| 20260506043557 | 53 | 225 | 0.0 | 1.0 | 0.00 | 0.00 | 0.14 | 93 | 1009.1 |
| 20260506042556 | 53 | 229 | 2.0 | 2.0 | 0.00 | 0.00 | 0.14 | 97 | 1009.1 |
| 20260506041556 | 53 | 204 | 0.0 | 0.0 | 0.00 | 0.00 | 0.14 | 96 | 1009.1 |
| 20260506040557 | 53 | 244 | 2.0 | 2.0 | 0.00 | 0.00 | 0.14 | 95 | 1009.1 |
| 20260506035556 | 53 | 226 | 1.0 | 2.0 | 0.00 | 0.00 | 0.14 | 95 | 1009.1 |
| 20260506034557 | 54 | 237 | 1.0 | 1.0 | 0.00 | 0.00 | 0.12 | 91 | 1009.8 |
| 20260506033556 | 54 | 337 | 2.0 | 3.0 | 0.00 | 0.00 | 0.09 | 89 | 1009.8 |
| 20260506032556 | 54 | 224 | 2.0 | 2.0 | 0.00 | 0.00 | 0.04 | 90 | 1009.8 |
| 20260506031556 | 55 | 15 | 3.0 | 5.0 | 0.00 | 0.00 | 0.02 | 87 | 1009.8 |
| 20260506030556 | 55 | 181 | 1.0 | 3.0 | 0.00 | 0.00 | 0.01 | 89 | 1009.1 |
| 20260506025556 | 54 | 240 | 1.0 | 1.0 | 0.00 | 0.00 | 0.01 | 92 | 1009.1 |
| 20260506024556 | 54 | 215 | 0.0 | 1.0 | 0.00 | 0.00 | 0.01 | 91 | 1009.5 |
| 20260506023556 | 54 | 211 | 0.0 | 1.0 | 0.00 | 0.00 | 0.01 | 92 | 1009.5 |
| 20260506022557 | 54 | 212 | 0.0 | 1.0 | 0.00 | 0.00 | 0.01 | 92 | 1009.5 |
| 20260506021556 | 54 | 225 | 1.0 | 1.0 | 0.00 | 0.00 | 0.01 | 93 | 1009.8 |
| 20260506020556 | 55 | 258 | 2.0 | 2.0 | 0.00 | 0.00 | 0.01 | 90 | 1009.5 |
| 20260506015556 | 55 | 204 | 0.0 | 1.0 | 0.00 | 0.00 | 0.01 | 93 | 1010.2 |
| 20260506014556 | 55 | 266 | 1.0 | 3.0 | 0.00 | 0.00 | 0.01 | 91 | 1010.2 |
| 20260506013556 | 54 | 275 | 2.0 | 3.0 | 0.00 | 0.00 | 0.01 | 94 | 1010.2 |
| 20260506012556 | 54 | 199 | 0.0 | 0.0 | 0.00 | 0.00 | 0.01 | 98 | 1010.2 |
| 20260506011556 | 54 | 206 | 0.0 | 0.0 | 0.00 | 0.00 | 0.01 | 98 | 1010.2 |
| 20260506010556 | 54 | 221 | 0.0 | 1.0 | 0.00 | 0.00 | 0.01 | 97 | 1010.2 |
| 20260506005556 | 54 | 206 | 0.0 | 1.0 | 0.00 | 0.00 | 0.01 | 97 | 1009.8 |
| 20260506004556 | 54 | 201 | 0.0 | 1.0 | 0.00 | 0.00 | 0.01 | 96 | 1009.8 |
| 20260506003556 | 54 | 230 | 1.0 | 3.0 | 0.00 | 0.00 | 0.01 | 97 | 1009.8 |
| 20260506002556 | 55 | 215 | 0.0 | 1.0 | 0.00 | 0.00 | 0.01 | 99 | 1010.5 |
| 20260506001556 | 55 | 270 | 1.0 | 1.0 | 0.00 | 0.00 | 0.01 | 99 | 1010.8 |
| 20260506000556 | 55 | 354 | 1.0 | 1.0 | 0.00 | 0.00 | 0.00 | 99 | 1010.8 |
| 20260505235556 | 55 | 242 | 1.0 | 1.0 | 0.00 | 0.00 | 0.00 | 99 | 1011.2 |
| 20260505234556 | 55 | 205 | 0.0 | 0.0 | 0.00 | 0.00 | 0.00 | 99 | 1011.9 |
| 20260505233556 | 55 | 213 | 0.0 | 0.0 | 0.00 | 0.00 | 0.00 | 98 | 1011.9 |
| 20260505232556 | 55 | 208 | 1.0 | 1.0 | 0.00 | 0.00 | 0.00 | 97 | 1011.9 |
| 20260505231556 | 56 | 205 | 3.0 | 3.0 | 0.00 | 0.00 | 0.00 | 98 | 1012.2 |
| 20260505230556 | 55 | 232 | 1.0 | 1.0 | 0.00 | 0.00 | 0.00 | 97 | 1011.9 |
| 20260505225556 | 56 | 224 | 1.0 | 1.0 | 0.00 | 0.00 | 0.08 | 95 | 1012.2 |
| 20260505224556 | 56 | 306 | 3.0 | 4.0 | 0.00 | 0.00 | 0.06 | 94 | 1011.9 |
| 20260505223556 | 56 | 230 | 1.0 | 1.0 | 0.00 | 0.00 | 0.03 | 92 | 1011.9 |
| 20260505222556 | 56 | 347 | 1.0 | 2.0 | 0.00 | 0.00 | 0.01 | 91 | 1011.9 |
| 20260505221556 | 57 | 268 | 2.0 | 3.0 | 0.00 | 0.00 | 0.00 | 91 | 1012.2 |
| 20260505220556 | 57 | 197 | 0.0 | 1.0 | 0.00 | 0.00 | 0.00 | 90 | 1012.2 |
| 20260505215556 | 57 | 191 | 1.0 | 1.0 | 0.00 | 0.00 | 0.00 | 90 | 1011.9 |
| 20260505214556 | 56 | 216 | 2.0 | 2.0 | 0.00 | 0.00 | 0.00 | 91 | 1012.5 |
| 20260505213556 | 57 | 197 | 0.0 | 0.0 | 0.00 | 0.00 | 0.00 | 89 | 1012.9 |
| 20260505212556 | 57 | 237 | 1.0 | 2.0 | 0.00 | 0.00 | 0.00 | 92 | 1013.2 |
| 20260505211554 | 57 | 233 | 1.0 | 1.0 | 0.00 | 0.00 | 0.00 | 91 | 1013.2 |
| 20260505210554 | 57 | 171 | 2.0 | 2.0 | 0.00 | 0.00 | 0.00 | 90 | 1013.2 |
| 20260505205555 | 57 | 258 | 2.0 | 2.0 | 0.00 | 0.00 | 0.00 | 92 | 1013.5 |